This demonstration page uses our WeatherBlox Daily Observations layout. Learn more.

Left ArrowRight Arrow

39.01783, -85.05884

Hourly Observations for January 14, 2020

Temp ( °F °C ) Dew Point ( °F °C ) Humidity (%) Winds ( mph kmh ) Pressure ( in mb ) Visibility ( mi km ) Precip ( " mm )
12:52 am 00:52 Cloudy 42 5.6 36 2.2 79 79 ESE 7 11 30.19 1023 10 16 0.00 0.00
1:52 am 01:52 Cloudy 43 6.1 36 2.2 76 76 ESE 6 9 30.17 1022 10 16 0.00 0.00
2:52 am 02:52 Cloudy 42 5.6 35 1.7 76 76 ENE 5 7 30.14 1021 10 16 0.00 0.00
3:52 am 03:52 Cloudy 42 5.6 37 2.8 82 82 E 3 6 30.09 1019 10 16 0.00 0.00
4:52 am 04:52 Partly Cloudy 41 5 35 1.7 79 79 ESE 5 7 30.08 1019 10 16 0.00 0.00
5:16 am 05:16 Partly Cloudy 39 3.9 35 1.7 86 86 SSE 7 11 30.10 1019 10 16 0.00 0.00
5:21 am 05:21 Mostly Cloudy 39 3.9 35 1.7 86 86 SSE 7 11 30.10 1019 10 16 0.00 0.00
5:52 am 05:52 Cloudy 43 6.1 39 3.9 86 86 S 6 9 30.07 1018 10 16 0.00 0.00
6:35 am 06:35 Cloudy with Mist and Fog 43 6.1 40 4.4 89 89 SW 5 7 30.11 1020 6 10 0.00 0.00
6:52 am 06:52 Cloudy with Mist and Fog 44 6.7 41 5 89 89 WSW 6 9 30.10 1019 3 5 0.00 0.00
7:13 am 07:13 Cloudy with Mist and Fog 44 6.7 41 5 89 89 SW 7 11 30.12 1020 1 2 0.00 0.00
7:52 am 07:52 Cloudy with Mist and Fog 45 7.2 43 6.1 93 93 SW 10 17 30.11 1020 1 2 0.00 0.00
7:57 am 07:57 Cloudy with Fog 45 7.2 43 6.1 93 93 SW 9 15 30.13 1020 1 2 0.00 0.00
8:52 am 08:52 Cloudy with Fog 45 7.2 44 6.7 97 97 WSW 7 11 30.13 1020 0 0 0.00 0.00
9:17 am 09:17 Cloudy with Mist and Fog 45 7.2 43 6.1 93 93 W 12 19 30.16 1021 1 2 0.00 0.00
9:32 am 09:32 Cloudy with Mist and Fog 46 7.8 43 6.1 89 89 W 9 15 30.16 1021 3 5 0.00 0.00
9:52 am 09:52 Cloudy with Mist and Fog 46 7.8 43 6.1 89 89 WSW 10 17 30.16 1021 3 5 0.00 0.00
10:06 am 10:06 Cloudy with Mist and Fog 47 8.3 43 6.1 86 86 WSW 9 15 30.18 1022 3 5 0.00 0.00
10:52 am 10:52 Cloudy 47 8.3 42 5.6 83 83 W 12 19 30.17 1022 9 14 0.00 0.00
11:52 am 11:52 Cloudy 48 8.9 41 5 77 77 WSW 12 19 30.18 1022 9 14 0.00 0.00
12:52 pm 12:52 Mostly Cloudy 49 9.4 42 5.6 77 77 W 8 13 30.17 1022 9 14 0.00 0.00
1:23 pm 13:23 Partly Cloudy 51 10.6 42 5.6 71 71 W 9 15 30.16 1021 10 16 0.00 0.00
1:52 pm 13:52 Partly Cloudy 52 11.1 42 5.6 69 69 W 10 17 30.14 1021 10 16 0.00 0.00
2:52 pm 14:52 Partly Cloudy 53 11.7 42 5.6 66 66 W 7 11 30.14 1021 10 16 0.00 0.00
3:52 pm 15:52 Partly Cloudy 52 11.1 42 5.6 69 69 NW 9 15 30.16 1021 10 16 0.00 0.00
4:52 pm 16:52 Mostly Sunny 49 9.4 41 5 74 74 NW 9 15 30.18 1022 9 14 0.00 0.00
5:52 pm 17:52 Mostly Clear 45 7.2 39 3.9 80 80 NW 6 9 30.18 1022 7 11 0.00 0.00
6:52 pm 18:52 Mostly Clear 44 6.7 39 3.9 83 83 Calm 30.18 1022 8 13 0.00 0.00
7:52 pm 19:52 Mostly Clear with Mist and Fog 41 5 38 3.3 89 89 NNW 5 7 30.20 1023 6 10 0.00 0.00
8:52 pm 20:52 Mostly Clear with Mist and Fog 39 3.9 36 2.2 89 89 Calm 30.20 1023 5 8 0.00 0.00
9:52 pm 21:52 Mostly Clear with Mist and Fog 39 3.9 36 2.2 89 89 Calm 30.20 1023 5 8 0.00 0.00
10:52 pm 22:52 Mostly Cloudy with Mist and Fog 40 4.4 37 2.8 89 89 NE 5 7 30.20 1023 5 8 0.00 0.00
11:52 pm 23:52 Cloudy with Mist and Fog 40 4.4 37 2.8 89 89 NE 5 7 30.20 1023 5 8 0.00 0.00

Powered by AerisWeather